| time (UTC) | temp F | wind direction | speed knots | gust knots | rain 1hr in | rain 24hr in | rain mn in | humidity % | barometer mb |
| 20260506232004 | 52 | 97 | 1.7 | 1.7 | 0.00 | 0.00 | 0.00 | 82 | 1016.9 |
| 20260506231504 | 52 | 125 | 1.7 | 1.7 | 0.00 | 0.00 | 0.00 | 83 | 1017.0 |
| 20260506231005 | 52 | 137 | 1.7 | 2.6 | 0.00 | 0.00 | 0.00 | 84 | 1016.9 |
| 20260506230504 | 51 | 130 | 0.9 | 2.6 | 0.00 | 0.00 | 0.00 | 83 | 1016.8 |
| 20260506230004 | 51 | 101 | 0.9 | 1.7 | 0.00 | 0.00 | 0.00 | 82 | 1017.1 |
| 20260506225504 | 52 | 98 | 1.7 | 1.7 | 0.00 | 0.00 | 0.00 | 81 | 1017.1 |
| 20260506225004 | 53 | 91 | 0.9 | 1.7 | 0.00 | 0.00 | 0.00 | 80 | 1017.0 |
| 20260506224004 | 54 | 32 | 1.7 | 2.6 | 0.00 | 0.00 | 0.00 | 81 | 1017.1 |
| 20260506223004 | 52 | 109 | 2.6 | 3.5 | 0.00 | 0.00 | 0.00 | 81 | 1017.1 |
| 20260506222504 | 53 | 132 | 2.6 | 3.5 | 0.00 | 0.00 | 0.00 | 81 | 1017.1 |
| 20260506221504 | 54 | 198 | 0.9 | 1.7 | 0.00 | 0.00 | 0.00 | 79 | 1017.3 |
| 20260506220505 | 55 | 35 | 1.7 | 1.7 | 0.00 | 0.00 | 0.00 | 74 | 1017.5 |
| 20260506220005 | 55 | 22 | 0.9 | 1.7 | 0.00 | 0.00 | 0.00 | 74 | 1017.4 |
| 20260506215504 | 55 | 347 | 0.9 | 3.5 | 0.00 | 0.00 | 0.00 | 76 | 1017.5 |
| 20260506214505 | 54 | 41 | 1.7 | 3.5 | 0.00 | 0.00 | 0.00 | 78 | 1017.4 |
| 20260506213005 | 54 | 79 | 1.7 | 1.7 | 0.00 | 0.00 | 0.00 | 80 | 1017.4 |
| 20260506212504 | 54 | 97 | 2.6 | 2.6 | 0.00 | 0.00 | 0.00 | 81 | 1017.4 |
| 20260506212004 | 54 | 106 | 2.6 | 2.6 | 0.00 | 0.00 | 0.00 | 80 | 1017.4 |
| 20260506211504 | 54 | 120 | 1.7 | 2.6 | 0.00 | 0.00 | 0.00 | 82 | 1017.3 |
| 20260506211005 | 53 | 126 | 1.7 | 1.7 | 0.00 | 0.00 | 0.00 | 82 | 1017.4 |
| 20260506210504 | 53 | 115 | 0.9 | 1.7 | 0.00 | 0.00 | 0.00 | 82 | 1017.5 |
| 20260506210009 | 53 | 100 | 0.0 | 1.7 | 0.00 | 0.00 | 0.00 | 81 | 1017.5 |
| 20260506205504 | 54 | 102 | 0.0 | 1.7 | 0.00 | 0.00 | 0.00 | 81 | 1017.6 |
| 20260506205004 | 54 | 173 | 0.0 | 1.7 | 0.00 | 0.00 | 0.00 | 81 | 1017.6 |
| 20260506204504 | 54 | 147 | 0.9 | 1.7 | 0.00 | 0.00 | 0.00 | 81 | 1017.5 |
| 20260506204007 | 54 | 139 | 0.9 | 1.7 | 0.00 | 0.00 | 0.00 | 80 | 1017.6 |
| 20260506203507 | 54 | 135 | 0.9 | 1.7 | 0.00 | 0.00 | 0.00 | 77 | 1017.5 |
| 20260506202505 | 55 | 191 | 0.9 | 1.7 | 0.00 | 0.00 | 0.00 | 74 | 1017.7 |
| 20260506202005 | 56 | 280 | 0.9 | 1.7 | 0.00 | 0.00 | 0.00 | 73 | 1017.6 |
| 20260506201505 | 56 | 308 | 0.9 | 1.7 | 0.00 | 0.00 | 0.00 | 74 | 1017.6 |
| 20260506195504 | 58 | 45 | 1.7 | 1.7 | 0.00 | 0.00 | 0.00 | 70 | 1017.7 |
| 20260506195004 | 58 | 45 | 0.9 | 1.7 | 0.00 | 0.00 | 0.00 | 69 | 1017.5 |
| 20260506194005 | 58 | 51 | 1.7 | 1.7 | 0.00 | 0.00 | 0.00 | 71 | 1017.5 |
| 20260506193504 | 58 | 49 | 1.7 | 1.7 | 0.00 | 0.00 | 0.00 | 70 | 1017.3 |
| 20260506193004 | 58 | 41 | 1.7 | 1.7 | 0.00 | 0.00 | 0.00 | 70 | 1017.3 |
| 20260506192504 | 58 | 40 | 1.7 | 1.7 | 0.00 | 0.00 | 0.00 | 70 | 1017.2 |
| 20260506192005 | 58 | 49 | 0.9 | 1.7 | 0.00 | 0.00 | 0.00 | 71 | 1017.5 |
| 20260506191505 | 58 | 80 | 0.9 | 1.7 | 0.00 | 0.00 | 0.00 | 72 | 1017.4 |
| 20260506191005 | 58 | 108 | 1.7 | 1.7 | 0.00 | 0.00 | 0.00 | 71 | 1017.2 |
| 20260506190505 | 59 | 129 | 1.7 | 1.7 | 0.00 | 0.00 | 0.00 | 71 | 1017.2 |
| 20260506190006 | 59 | 131 | 1.7 | 1.7 | 0.00 | 0.00 | 0.00 | 71 | 1017.1 |
| 20260506185505 | 60 | 133 | 1.7 | 1.7 | 0.00 | 0.00 | 0.00 | 70 | 1017.1 |
| 20260506185005 | 60 | 137 | 0.9 | 1.7 | 0.00 | 0.00 | 0.00 | 68 | 1017.0 |
| 20260506184505 | 60 | 156 | 0.9 | 1.7 | 0.00 | 0.00 | 0.00 | 67 | 1017.0 |
| 20260506184005 | 60 | 116 | 0.9 | 2.6 | 0.00 | 0.00 | 0.00 | 69 | 1017.0 |
| 20260506183505 | 61 | 101 | 1.7 | 2.6 | 0.00 | 0.00 | 0.00 | 66 | 1016.9 |
| 20260506183005 | 61 | 112 | 1.7 | 2.6 | 0.00 | 0.00 | 0.00 | 67 | 1016.9 |
| 20260506182505 | 60 | 130 | 1.7 | 2.6 | 0.00 | 0.00 | 0.00 | 69 | 1016.8 |
| 20260506182006 | 60 | 134 | 1.7 | 2.6 | 0.00 | 0.00 | 0.00 | 70 | 1016.7 |
| 20260506181505 | 61 | 128 | 1.7 | 2.6 | 0.00 | 0.00 | 0.00 | 69 | 1016.7 |
| 20260506180505 | 64 | 34 | 2.6 | 3.5 | 0.00 | 0.00 | 0.00 | 58 | 1016.6 |
| 20260506180006 | 64 | 43 | 2.6 | 3.5 | 0.00 | 0.00 | 0.00 | 57 | 1016.7 |
| 20260506175505 | 64 | 45 | 3.5 | 3.5 | 0.00 | 0.00 | 0.00 | 58 | 1016.7 |
| 20260506175005 | 64 | 46 | 3.5 | 3.5 | 0.00 | 0.00 | 0.00 | 58 | 1016.7 |
| 20260506174505 | 64 | 28 | 2.6 | 3.5 | 0.00 | 0.00 | 0.00 | 60 | 1016.5 |
| 20260506174006 | 64 | 1 | 2.6 | 3.5 | 0.00 | 0.00 | 0.00 | 60 | 1016.5 |
| 20260506173505 | 64 | 22 | 2.6 | 3.5 | 0.00 | 0.00 | 0.00 | 60 | 1016.5 |
| 20260506173005 | 64 | 48 | 1.7 | 3.5 | 0.00 | 0.00 | 0.00 | 61 | 1016.6 |
| 20260506172505 | 65 | 42 | 1.7 | 2.6 | 0.00 | 0.00 | 0.00 | 60 | 1016.4 |
| 20260506172005 | 66 | 34 | 1.7 | 2.6 | 0.00 | 0.00 | 0.00 | 56 | 1016.2 |
| 20260506171005 | 67 | 285 | 1.7 | 2.6 | 0.00 | 0.00 | 0.00 | 56 | 1016.4 |
| 20260506170505 | 67 | 291 | 2.6 | 2.6 | 0.00 | 0.00 | 0.00 | 55 | 1016.3 |
| 20260506170005 | 68 | 304 | 2.6 | 3.5 | 0.00 | 0.00 | 0.00 | 54 | 1016.1 |
| 20260506165506 | 68 | 311 | 3.5 | 3.5 | 0.00 | 0.00 | 0.00 | 53 | 1016.3 |
| 20260506165005 | 69 | 311 | 3.5 | 3.5 | 0.00 | 0.00 | 0.00 | 51 | 1016.3 |
| 20260506164505 | 69 | 312 | 2.6 | 3.5 | 0.00 | 0.00 | 0.00 | 51 | 1016.0 |
| 20260506164005 | 70 | 292 | 3.5 | 5.2 | 0.00 | 0.00 | 0.00 | 50 | 1016.1 |
| 20260506162505 | 73 | 264 | 3.5 | 3.5 | 0.00 | 0.00 | 0.00 | 40 | 1016.2 |
| 20260506162005 | 74 | 265 | 2.6 | 3.5 | 0.00 | 0.00 | 0.00 | 38 | 1016.1 |
| 20260506161505 | 74 | 222 | 1.7 | 3.5 | 0.00 | 0.00 | 0.00 | 36 | 1016.1 |
| 20260506160505 | 75 | 189 | 4.3 | 5.2 | 0.00 | 0.00 | 0.00 | 34 | 1016.2 |
| 20260506160005 | 74 | 195 | 5.2 | 6.1 | 0.00 | 0.00 | 0.00 | 34 | 1016.3 |
| 20260506155505 | 74 | 192 | 5.2 | 6.1 | 0.00 | 0.00 | 0.00 | 34 | 1016.2 |
| 20260506155005 | 75 | 184 | 5.2 | 6.1 | 0.00 | 0.00 | 0.00 | 34 | 1016.2 |
| 20260506154505 | 74 | 162 | 5.2 | 6.1 | 0.00 | 0.00 | 0.00 | 35 | 1016.2 |
| 20260506153505 | 74 | 146 | 4.3 | 6.1 | 0.00 | 0.00 | 0.00 | 35 | 1016.4 |
| 20260506152505 | 74 | 147 | 4.3 | 7.0 | 0.00 | 0.00 | 0.00 | 36 | 1016.3 |
| 20260506151505 | 74 | 154 | 5.2 | 7.0 | 0.00 | 0.00 | 0.00 | 36 | 1016.4 |
| 20260506151005 | 74 | 160 | 5.2 | 7.0 | 0.00 | 0.00 | 0.00 | 35 | 1016.4 |
| 20260506150505 | 74 | 165 | 6.1 | 7.0 | 0.00 | 0.00 | 0.00 | 35 | 1016.5 |
| 20260506150005 | 74 | 176 | 6.1 | 7.8 | 0.00 | 0.00 | 0.00 | 35 | 1016.5 |
| 20260506145506 | 74 | 154 | 7.0 | 8.7 | 0.00 | 0.00 | 0.00 | 34 | 1016.6 |
| 20260506145005 | 74 | 137 | 7.0 | 9.6 | 0.00 | 0.00 | 0.00 | 35 | 1016.5 |
| 20260506144505 | 74 | 143 | 7.0 | 9.6 | 0.00 | 0.00 | 0.00 | 33 | 1016.5 |
| 20260506143503 | 75 | 168 | 6.1 | 7.8 | 0.00 | 0.00 | 0.00 | 34 | 1016.5 |
| 20260506143003 | 75 | 156 | 7.0 | 8.7 | 0.00 | 0.00 | 0.00 | 33 | 1016.4 |
| 20260506142503 | 75 | 156 | 7.8 | 9.6 | 0.00 | 0.00 | 0.00 | 33 | 1016.5 |
| 20260506142003 | 75 | 161 | 8.7 | 10.4 | 0.00 | 0.00 | 0.00 | 32 | 1016.4 |
| 20260506141502 | 75 | 166 | 8.7 | 10.4 | 0.00 | 0.00 | 0.00 | 33 | 1016.5 |
| 20260506141003 | 75 | 171 | 7.8 | 10.4 | 0.00 | 0.00 | 0.00 | 32 | 1016.5 |
| 20260506140504 | 76 | 148 | 7.8 | 8.7 | 0.00 | 0.00 | 0.00 | 31 | 1016.5 |
| 20260506140003 | 75 | 146 | 7.8 | 10.4 | 0.00 | 0.00 | 0.00 | 32 | 1016.5 |
| 20260506135503 | 75 | 155 | 8.7 | 10.4 | 0.00 | 0.00 | 0.00 | 32 | 1016.5 |
| 20260506135002 | 75 | 144 | 7.8 | 10.4 | 0.00 | 0.00 | 0.00 | 32 | 1016.5 |
| 20260506134502 | 74 | 146 | 8.7 | 13.0 | 0.00 | 0.00 | 0.00 | 33 | 1016.5 |
| 20260506133502 | 74 | 145 | 11.3 | 13.0 | 0.00 | 0.00 | 0.00 | 33 | 1016.6 |
| 20260506133004 | 74 | 144 | 11.3 | 13.0 | 0.00 | 0.00 | 0.00 | 33 | 1016.6 |
| 20260506132503 | 74 | 151 | 12.2 | 14.8 | 0.00 | 0.00 | 0.00 | 33 | 1016.6 |
| 20260506132003 | 74 | 152 | 12.2 | 14.8 | 0.00 | 0.00 | 0.00 | 32 | 1016.5 |
| 20260506131003 | 75 | 154 | 10.4 | 13.0 | 0.00 | 0.00 | 0.00 | 34 | 1016.4 |
| 20260506130503 | 75 | 156 | 10.4 | 13.0 | 0.00 | 0.00 | 0.00 | 34 | 1016.4 |
| 20260506130003 | 75 | 169 | 9.6 | 11.3 | 0.00 | 0.00 | 0.00 | 35 | 1016.4 |
| 20260506125503 | 75 | 169 | 10.4 | 13.0 | 0.00 | 0.00 | 0.00 | 34 | 1016.4 |
| 20260506125003 | 74 | 144 | 11.3 | 13.0 | 0.00 | 0.00 | 0.00 | 36 | 1016.5 |
| 20260506124503 | 74 | 139 | 11.3 | 14.8 | 0.00 | 0.00 | 0.00 | 37 | 1016.5 |
| 20260506124003 | 74 | 143 | 13.0 | 15.6 | 0.00 | 0.00 | 0.00 | 38 | 1016.5 |
| 20260506123504 | 74 | 138 | 13.9 | 15.6 | 0.00 | 0.00 | 0.00 | 39 | 1016.6 |
| 20260506123004 | 74 | 134 | 13.0 | 14.8 | 0.00 | 0.00 | 0.00 | 38 | 1016.6 |
| 20260506122503 | 74 | 143 | 12.2 | 15.6 | 0.00 | 0.00 | 0.00 | 40 | 1016.7 |
| 20260506122003 | 75 | 146 | 11.3 | 15.6 | 0.00 | 0.00 | 0.00 | 41 | 1016.6 |
| 20260506121503 | 74 | 138 | 12.2 | 15.6 | 0.00 | 0.00 | 0.00 | 40 | 1016.7 |
| 20260506121003 | 74 | 146 | 13.0 | 14.8 | 0.00 | 0.00 | 0.00 | 42 | 1016.7 |
| 20260506120502 | 74 | 150 | 13.0 | 14.8 | 0.00 | 0.00 | 0.00 | 42 | 1016.7 |
| 20260506120004 | 74 | 147 | 13.9 | 16.5 | 0.00 | 0.00 | 0.00 | 42 | 1016.7 |
| 20260506115503 | 74 | 153 | 13.9 | 16.5 | 0.00 | 0.00 | 0.00 | 42 | 1016.8 |
| 20260506114503 | 74 | 151 | 13.0 | 13.9 | 0.00 | 0.00 | 0.00 | 41 | 1016.8 |
| 20260506114003 | 74 | 156 | 13.0 | 14.8 | 0.00 | 0.00 | 0.00 | 42 | 1016.8 |
| 20260506113003 | 74 | 150 | 13.9 | 16.5 | 0.00 | 0.00 | 0.00 | 40 | 1016.8 |
| 20260506112503 | 74 | 146 | 14.8 | 17.4 | 0.00 | 0.00 | 0.00 | 40 | 1016.9 |
| 20260506112003 | 73 | 135 | 15.6 | 17.4 | 0.00 | 0.00 | 0.00 | 40 | 1016.8 |
| 20260506111503 | 73 | 138 | 14.8 | 17.4 | 0.00 | 0.00 | 0.00 | 42 | 1017.0 |
| 20260506111003 | 74 | 141 | 13.9 | 17.4 | 0.00 | 0.00 | 0.00 | 41 | 1016.8 |
| 20260506110503 | 74 | 134 | 13.9 | 15.6 | 0.00 | 0.00 | 0.00 | 41 | 1017.1 |
| 20260506110004 | 73 | 132 | 14.8 | 17.4 | 0.00 | 0.00 | 0.00 | 42 | 1017.0 |
| 20260506104004 | 73 | 138 | 14.8 | 18.2 | 0.00 | 0.00 | 0.00 | 43 | 1017.2 |
| 20260506103504 | 74 | 137 | 13.9 | 18.2 | 0.00 | 0.00 | 0.00 | 42 | 1017.1 |
| 20260506102504 | 73 | 135 | 15.6 | 18.2 | 0.00 | 0.00 | 0.00 | 42 | 1017.1 |
| 20260506101503 | 74 | 145 | 13.9 | 15.6 | 0.00 | 0.00 | 0.00 | 41 | 1017.2 |
| 20260506101003 | 74 | 160 | 13.9 | 15.6 | 0.00 | 0.00 | 0.00 | 40 | 1017.2 |
| 20260506100503 | 74 | 150 | 12.2 | 14.8 | 0.00 | 0.00 | 0.00 | 41 | 1017.2 |
| 20260506100004 | 74 | 134 | 12.2 | 15.6 | 0.00 | 0.00 | 0.00 | 41 | 1017.2 |
| 20260506095504 | 74 | 140 | 13.0 | 15.6 | 0.00 | 0.00 | 0.00 | 41 | 1017.3 |
| 20260506094503 | 74 | 140 | 12.2 | 14.8 | 0.00 | 0.00 | 0.00 | 38 | 1017.1 |
| 20260506093004 | 74 | 145 | 11.3 | 13.0 | 0.00 | 0.00 | 0.00 | 36 | 1017.2 |
| 20260506092003 | 74 | 150 | 12.2 | 13.9 | 0.00 | 0.00 | 0.00 | 36 | 1017.2 |
| 20260506091504 | 74 | 150 | 12.2 | 13.9 | 0.00 | 0.00 | 0.00 | 37 | 1017.1 |
| 20260506091004 | 74 | 160 | 12.2 | 14.8 | 0.00 | 0.00 | 0.00 | 40 | 1017.2 |
| 20260506090504 | 74 | 161 | 13.0 | 14.8 | 0.00 | 0.00 | 0.00 | 38 | 1017.1 |
| 20260506090004 | 74 | 153 | 12.2 | 14.8 | 0.00 | 0.00 | 0.00 | 38 | 1017.1 |
| 20260506085503 | 75 | 156 | 11.3 | 13.0 | 0.00 | 0.00 | 0.00 | 38 | 1017.0 |
| 20260506085003 | 75 | 162 | 11.3 | 13.9 | 0.00 | 0.00 | 0.00 | 40 | 1017.0 |
| 20260506084503 | 75 | 159 | 11.3 | 13.9 | 0.00 | 0.00 | 0.00 | 36 | 1017.0 |
| 20260506084004 | 75 | 160 | 11.3 | 13.0 | 0.00 | 0.00 | 0.00 | 34 | 1017.1 |
| 20260506083003 | 76 | 158 | 10.4 | 13.0 | 0.00 | 0.00 | 0.00 | 33 | 1016.9 |
| 20260506082503 | 76 | 165 | 10.4 | 13.0 | 0.00 | 0.00 | 0.00 | 32 | 1016.8 |
| 20260506081504 | 77 | 185 | 8.7 | 11.3 | 0.00 | 0.00 | 0.00 | 32 | 1016.9 |
| 20260506081004 | 77 | 183 | 8.7 | 11.3 | 0.00 | 0.00 | 0.00 | 32 | 1016.9 |
| 20260506080504 | 77 | 159 | 7.8 | 9.6 | 0.00 | 0.00 | 0.00 | 33 | 1016.8 |
| 20260506073504 | 77 | 187 | 3.5 | 5.2 | 0.00 | 0.00 | 0.00 | 31 | 1016.8 |
| 20260506073003 | 76 | 192 | 2.6 | 5.2 | 0.00 | 0.00 | 0.00 | 32 | 1016.7 |
| 20260506072503 | 75 | 207 | 2.6 | 3.5 | 0.00 | 0.00 | 0.00 | 31 | 1016.6 |
| 20260506072004 | 74 | 225 | 2.6 | 3.5 | 0.00 | 0.00 | 0.00 | 33 | 1016.7 |
| 20260506071503 | 72 | 286 | 1.7 | 3.5 | 0.00 | 0.00 | 0.00 | 40 | 1016.7 |
| 20260506071003 | 72 | 265 | 2.6 | 3.5 | 0.00 | 0.00 | 0.00 | 37 | 1016.7 |
| 20260506070503 | 72 | 270 | 2.6 | 3.5 | 0.00 | 0.00 | 0.00 | 39 | 1016.6 |
| 20260506062503 | 67 | 289 | 2.6 | 3.5 | 0.00 | 0.00 | 0.00 | 44 | 1016.8 |
| 20260506062004 | 67 | 308 | 1.7 | 3.5 | 0.00 | 0.00 | 0.00 | 48 | 1016.7 |
| 20260506061504 | 66 | 313 | 1.7 | 2.6 | 0.00 | 0.00 | 0.00 | 49 | 1016.6 |
| 20260506061004 | 65 | 1 | 1.7 | 2.6 | 0.00 | 0.00 | 0.00 | 52 | 1016.7 |
| 20260506060504 | 65 | 287 | 2.6 | 2.6 | 0.00 | 0.00 | 0.00 | 52 | 1016.8 |
| 20260506051004 | 58 | 290 | 0.0 | 1.7 | 0.00 | 0.00 | 0.00 | 69 | 1016.6 |
| 20260506050504 | 57 | 292 | 0.0 | 1.7 | 0.00 | 0.00 | 0.00 | 70 | 1016.6 |
| 20260506045004 | 54 | 1 | 0.0 | 1.7 | 0.00 | 0.00 | 0.00 | 73 | 1016.4 |
| 20260506044504 | 53 | 0 | 0.0 | 0.0 | 0.00 | 0.00 | 0.00 | 75 | 1016.4 |
| 20260506044004 | 53 | 135 | 0.0 | 1.7 | 0.00 | 0.00 | 0.00 | 75 | 1016.4 |
| 20260506043503 | 51 | 74 | 0.9 | 1.7 | 0.00 | 0.00 | 0.00 | 76 | 1016.4 |
| 20260506043004 | 52 | 334 | 0.9 | 1.7 | 0.00 | 0.00 | 0.00 | 75 | 1016.3 |
| 20260506042503 | 52 | 321 | 0.9 | 1.7 | 0.00 | 0.00 | 0.00 | 74 | 1016.3 |
| 20260506042004 | 51 | 314 | 0.0 | 1.7 | 0.00 | 0.00 | 0.00 | 76 | 1016.2 |
| 20260506041504 | 50 | 27 | 0.9 | 1.7 | 0.00 | 0.00 | 0.00 | 79 | 1016.1 |
| 20260506041004 | 49 | 66 | 0.9 | 1.7 | 0.00 | 0.00 | 0.00 | 81 | 1016.1 |
| 20260506040504 | 48 | 81 | 0.9 | 1.7 | 0.00 | 0.00 | 0.00 | 83 | 1016.0 |
| 20260506040004 | 47 | 60 | 0.9 | 1.7 | 0.00 | 0.00 | 0.00 | 83 | 1016.1 |
| 20260506035504 | 47 | 49 | 0.9 | 1.7 | 0.00 | 0.00 | 0.00 | 82 | 1016.1 |
| 20260506035004 | 47 | 90 | 0.9 | 2.6 | 0.00 | 0.00 | 0.00 | 81 | 1016.0 |
| 20260506033005 | 47 | 288 | 0.0 | 1.7 | 0.00 | 0.00 | 0.00 | 77 | 1016.1 |
| 20260506032504 | 48 | 71 | 0.9 | 3.5 | 0.00 | 0.00 | 0.00 | 79 | 1016.0 |
| 20260506032004 | 49 | 58 | 2.6 | 3.5 | 0.00 | 0.00 | 0.00 | 80 | 1016.1 |
| 20260506031004 | 48 | 44 | 1.7 | 1.7 | 0.00 | 0.00 | 0.00 | 81 | 1015.9 |
| 20260506030504 | 47 | 58 | 1.7 | 1.7 | 0.00 | 0.00 | 0.00 | 82 | 1015.9 |
| 20260506030004 | 47 | 73 | 1.7 | 1.7 | 0.00 | 0.00 | 0.00 | 81 | 1015.9 |
| 20260506025004 | 48 | 20 | 0.9 | 1.7 | 0.00 | 0.00 | 0.00 | 80 | 1015.9 |
| 20260506024004 | 47 | 67 | 1.7 | 1.7 | 0.00 | 0.00 | 0.00 | 81 | 1015.9 |
| 20260506023504 | 47 | 106 | 1.7 | 2.6 | 0.00 | 0.00 | 0.00 | 79 | 1015.8 |
| 20260506023004 | 48 | 132 | 1.7 | 2.6 | 0.00 | 0.00 | 0.00 | 78 | 1015.8 |
| 20260506022504 | 49 | 233 | 0.9 | 1.7 | 0.00 | 0.00 | 0.00 | 76 | 1015.9 |
| 20260506021504 | 51 | 72 | 1.7 | 1.7 | 0.00 | 0.00 | 0.00 | 73 | 1015.9 |
| 20260506021004 | 50 | 91 | 1.7 | 1.7 | 0.00 | 0.00 | 0.00 | 75 | 1015.8 |
| 20260506020004 | 50 | 27 | 0.0 | 1.7 | 0.00 | 0.00 | 0.00 | 71 | 1015.8 |
| 20260506015504 | 51 | 314 | 0.9 | 1.7 | 0.00 | 0.00 | 0.00 | 70 | 1015.9 |
| 20260506015005 | 51 | 353 | 0.9 | 1.7 | 0.00 | 0.00 | 0.00 | 71 | 1015.9 |
| 20260506014504 | 51 | 16 | 0.9 | 1.7 | 0.00 | 0.00 | 0.00 | 72 | 1015.9 |
| 20260506013504 | 52 | 44 | 1.7 | 2.6 | 0.00 | 0.00 | 0.00 | 70 | 1015.9 |
| 20260506013004 | 51 | 71 | 1.7 | 2.6 | 0.00 | 0.00 | 0.00 | 71 | 1015.9 |
| 20260506012504 | 51 | 114 | 0.9 | 1.7 | 0.00 | 0.00 | 0.00 | 69 | 1015.9 |
| 20260506012004 | 53 | 50 | 0.9 | 1.7 | 0.00 | 0.00 | 0.00 | 66 | 1015.9 |
| 20260506011504 | 53 | 45 | 1.7 | 1.7 | 0.00 | 0.00 | 0.00 | 68 | 1015.9 |
| 20260506010504 | 51 | 20 | 0.9 | 2.6 | 0.00 | 0.00 | 0.00 | 71 | 1015.9 |
| 20260506010004 | 51 | 22 | 1.7 | 2.6 | 0.00 | 0.00 | 0.00 | 71 | 1016.0 |
| 20260506005504 | 50 | 33 | 1.7 | 2.6 | 0.00 | 0.00 | 0.00 | 72 | 1015.9 |
| 20260506005004 | 51 | 52 | 1.7 | 2.6 | 0.00 | 0.00 | 0.00 | 71 | 1015.9 |
| 20260506004004 | 51 | 51 | 2.6 | 3.5 | 0.00 | 0.00 | 0.00 | 71 | 1016.2 |
| 20260506003005 | 49 | 100 | 1.7 | 3.5 | 0.00 | 0.00 | 0.00 | 73 | 1016.2 |
| 20260506001504 | 51 | 84 | 0.9 | 1.7 | 0.00 | 0.00 | 0.00 | 71 | 1016.2 |
| 20260506001004 | 52 | 71 | 0.9 | 1.7 | 0.00 | 0.00 | 0.00 | 70 | 1016.3 |
| 20260506000504 | 51 | 74 | 1.7 | 1.7 | 0.00 | 0.00 | 0.00 | 73 | 1016.4 |
| 20260506000004 | 50 | 51 | 1.7 | 1.7 | 0.00 | 0.00 | 0.00 | 73 | 1016.2 |
| 20260505235504 | 50 | 44 | 1.7 | 1.7 | 0.00 | 0.00 | 0.00 | 72 | 1016.2 |
| 20260505235004 | 51 | 80 | 1.7 | 2.6 | 0.00 | 0.00 | 0.00 | 72 | 1016.2 |
| 20260505234504 | 51 | 78 | 1.7 | 2.6 | 0.00 | 0.00 | 0.00 | 72 | 1016.4 |
| 20260505234005 | 51 | 71 | 1.7 | 2.6 | 0.00 | 0.00 | 0.00 | 71 | 1016.3 |
| 20260505233504 | 52 | 82 | 1.7 | 2.6 | 0.00 | 0.00 | 0.00 | 71 | 1016.2 |
| 20260505233005 | 51 | 89 | 1.7 | 2.6 | 0.00 | 0.00 | 0.00 | 73 | 1016.4 |